Location: Treviso
(45.6669°N, 12.2430°E)
Time: 16:52:38
(UTC+02:00)

ISS - Visible Passes

Search period start: 23 September 2023 00:00
Search period end: 03 October 2023 00:00
Orbit: 414 x 422 km, 51.6° (Epoch: 23 September)

Date Brightness Start Highest point End Pass type
(mag) Time Alt. Az. Time Alt. Az. Time Alt. Az.
23 Sep -2.4 20:52:07 10° WNW 20:55:07 29° N 20:55:41 28° NNE visible
24 Sep -2.2 20:04:01 10° WNW 20:06:58 28° N 20:09:28 13° ENE visible
24 Sep -1.3 21:40:55 10° WNW 21:42:23 23° NW 21:42:23 23° NW visible
25 Sep -2.9 20:52:55 10° NW 20:56:06 39° NNE 20:56:08 39° NNE visible
26 Sep -2.6 20:04:51 10° NW 20:07:55 33° NNE 20:09:52 18° ENE visible
26 Sep -1.1 21:41:34 10° WNW 21:42:47 21° WNW 21:42:47 21° WNW visible
27 Sep -3.5 20:53:29 10° WNW 20:56:32 65° NNW 20:56:32 65° NNW visible
28 Sep -3.3 20:05:23 10° NW 20:08:39 50° NNE 20:10:17 25° E visible
28 Sep -0.8 21:42:18 10° WNW 21:43:12 16° W 21:43:12 16° W visible
29 Sep -3.1 20:54:00 10° WNW 20:56:59 49° SW 20:56:59 49° SW visible
30 Sep -3.8 20:05:45 10° WNW 20:09:07 80° SSW 20:10:48 27° SE visible
01 Oct -3.7 19:17:32 10° WNW 19:20:52 68° NNE 19:24:12 10° ESE visible
01 Oct -1.7 20:54:47 10° W 20:57:21 21° SW 20:57:37 20° SW visible
02 Oct -2.3 20:06:11 10° WNW 20:09:14 33° SW 20:11:34 15° SSE visible
